RH
31 32 32 31 39 45 49 56 62 64 62 59 53 55 54 54 55 56 61 65 63 65 63 69 66 64 68 70 72 66 68 64
33 35 37 37 47 50 51 58 61 56 54 52 51 53 53 52 51 58 59 63 66 66 65 65 67 68 72 69 69 70 66 66
34 39 40 48 49 49 50 54 56 50 47 53 54 50 51 48 53 58 59 62 65 55 68 66 68 69 73 73 72 74 71 67
38 40 45 48 51 52 49 52 50 50 51 46 51 52 55 52 51 51 57 56 58 62 64 68 70 69 73 73 75 74 74 69
37 40 45 46 51 52 48 46 46 48 52 48 52 45 46 48 48 51 53 55 55 56 60 64 68 70 73 72 65 74 72 74
38 41 43 43 49 52 51 49 47 50 48 54 54 52 51 48 51 56 56 58 56 52 58 62 65 67 70 70 72 74 73 74
37 40 42 43 46 52 54 48 45 50 51 55 58 58 50 49 50 52 52 53 56 57 54 61 62 64 65 66 67 67 70 71
37 41 44 45 51 55 53 45 46 49 54 56 59 58 57 56 51 52 50 53 57 61 59 62 62 62 62 62 65 66 67 70
37 43 44 44 53 55 52 45 47 47 52 56 57 55 53 56 56 56 57 59 62 60 60 60 60 60 61 61 65 65 65 68
39 42 45 45 56 65 59 49 45 47 53 54 56 56 55 59 61 62 64 60 53 62 61 62 62 63 63 62 63 63 65 64
39 46 46 44 90 70 60 54 49 50 50 52 50 54 56 59 61 66 66 66 62 64 65 65 66 65 66 62 61 64 62 64
41 51 44 52 72 77 74 56 57 57 55 53 56 55 57 61 64 65 66 65 63 62 64 66 71 71 69 67 63 68 66 68
46 50 51 74 70 66 91 77 93 71 60 57 59 58 56 60 66 68 69 69 64 64 65 70 74 78 78 82 75 76 80 80
58 55 57 79 70 81 98 89 68 71 97 86 65 69 66 75 77 74 75 74 72 69 70 74 72 78 81 90 81 78 88 82
71 64 77 74 71 93 77 64 62 76 90 100 100 98 94 88 90 94 93 86 87 90 89 84 81 78 73 76 77 80 77 80
63 67 76 71 75 76 65 60 60 63 74 85 95 97 97 92 93 94 92 92 92 93 94 92 84 85 92 90 89 89 87 86
56 63 63 66 70 71 62 60 58 59 63 71 74 77 79 87 87 85 85 90 90 93 95 93 91 75 63 69 83 94 93 92
56 66 63 64 66 66 66 58 55 57 59 61 64 65 66 70 70 68 74 79 80 85 92 85 83 78 60 57 59 93 93 90
52 65 65 65 64 68 66 53 54 57 57 57 60 61 59 59 60 61 66 68 69 71 78 78 71 65 62 58 62 70 71 74
Wind_Speed
16 16 15 15 16 13 11 9 10 9 7 6 5 5 4 5 5 5 6 5 6 5 5 5 5 4 5 6 6 7 6 8
15 14 13 12 15 12 12 12 10 8 7 7 7 5 5 5 7 7 6 5 5 6 4 5 5 4 5 7 6 9 7 9
16 15 13 14 15 14 12 11 10 8 6 3 4 5 5 6 5 7 5 6 6 6 5 5 5 4 6 6 8 5 4 8
19 17 13 13 13 11 11 11 10 4 8 6 6 6 4 4 4 6 5 6 6 6 6 5 5 5 5 5 6 7 6 6
21 19 16 13 12 10 10 10 7 7 8 9 10 6 6 4 5 4 6 6 6 6 6 6 5 4 5 5 5 4 5 5
24 20 17 15 13 12 10 10 9 6 4 7 4 8 7 4 5 6 6 6 7 6 6 6 6 4 5 5 5 5 4 3
22 20 18 16 14 13 10 11 9 6 4 5 7 8 7 6 5 4 5 4 5 6 6 5 5 4 4 4 5 6 5 5
22 22 18 16 17 15 12 12 11 8 7 6 7 7 6 7 6 5 5 4 5 5 5 5 3 4 4 4 5 5 5 5
22 22 19 17 17 16 14 13 12 10 9 8 7 7 4 4 5 5 5 5 5 5 4 5 5 5 5 4 4 5 5 5
19 20 19 17 18 16 15 14 13 11 10 7 7 6 6 6 6 6 5 5 6 5 5 5 5 6 6 5 5 6 6 6
15 17 18 15 12 14 12 12 13 11 11 9 7 7 7 6 6 6 8 5 6 7 6 6 5 6 6 7 7 6 7 6
13 15 16 14 16 14 12 11 12 11 10 10 10 8 8 6 7 6 6 5 6 6 7 5 5 7 7 6 7 7 8 7
14 15 15 17 17 17 11 9 9 9 9 10 10 9 9 8 7 7 6 6 6 6 6 6 6 6 7 6 7 7 6 6
11 16 16 16 15 13 9 11 12 8 6 8 10 8 9 9 8 6 6 7 6 6 6 5 5 5 5 3 5 6 3 5
4 13 14 16 15 13 13 13 12 10 9 7 8 8 9 9 9 8 6 8 8 5 5 5 6 6 5 6 6 6 6 5
14 15 15 16 16 14 14 13 12 12 11 12 11 10 10 10 9 7 7 8 5 4 2 3 7 4 3 5 5 4 5 5
16 16 17 18 18 16 16 14 13 13 13 13 13 13 13 11 10 10 9 7 6 4 3 3 5 4 8 7 5 2 4 3
19 21 20 20 21 19 17 16 15 14 14 14 14 13 13 12 11 11 10 10 9 7 4 6 7 6 5 3 2 2 3 2
22 18 18 18 18 18 17 19 17 15 15 15 14 14 13 13 12 12 11 10 9 8 8 7 10 6 5 2 4 5 4 6
Wind_Direction
153 159 158 162 146 155 155 156 143 144 151 156 137 131 110 101 78 71 56 47 20 16 37 22 358 8 15 9 0 352 341 345
150 158 151 152 139 153 163 149 157 158 168 164 158 137 124 106 99 69 64 53 23 47 19 21 8 10 28 13 2 354 359 4
163 154 153 140 149 161 163 163 172 186 167 110 105 104 75 96 104 104 72 66 38 44 31 17 10 354 34 12 21 355 347 24
158 161 156 148 158 165 160 160 185 149 102 102 81 83 135 142 138 104 74 69 50 35 33 18 9 13 24 13 25 1 4 11
159 163 161 163 163 165 165 164 151 126 155 147 164 174 142 96 101 91 105 76 65 45 28 24 22 21 31 8 16 7 31 9
162 167 164 172 169 160 164 154 147 143 193 108 130 94 114 121 102 126 121 119 88 56 44 31 23 21 26 16 15 33 19 12
156 162 165 175 166 163 154 151 136 142 100 127 117 123 133 134 137 134 104 98 105 59 61 38 39 18 20 6 28 36 30 4
160 164 167 174 164 159 152 163 145 143 145 129 112 108 89 102 136 86 110 107 78 71 56 49 28 17 15 3 48 24 26 9
165 163 164 176 159 156 159 160 153 155 150 129 110 111 102 88 83 98 75 82 84 72 63 69 41 27 11 15 53 16 18 16
160 160 162 173 159 160 164 157 157 161 133 130 132 110 112 107 100 105 87 96 125 88 61 61 48 31 15 30 54 18 17 21
155 157 162 170 148 151 150 150 157 149 148 142 135 123 120 122 111 92 99 105 89 91 71 50 41 45 22 39 47 20 33 20
157 159 162 147 142 143 142 159 148 155 154 150 136 128 124 115 108 106 105 105 102 96 86 68 42 58 34 38 67 34 45 28
155 152 151 139 149 145 147 147 135 154 155 139 134 136 134 124 113 108 113 109 90 97 96 100 83 65 63 27 69 53 29 46
146 155 144 143 149 146 133 127 146 151 118 142 134 140 125 115 115 104 87 93 84 77 94 86 79 96 100 81 43 99 64 30
138 158 137 148 151 142 139 149 155 140 132 113 112 106 110 109 92 86 77 81 85 63 50 69 64 41 65 55 56 39 53 42
176 177 150 154 149 153 154 157 165 156 142 134 124 119 111 109 112 112 110 102 111 110 108 85 106 80 47 54 61 47 50 40
182 180 164 163 154 163 157 164 176 164 161 154 146 142 141 136 140 144 131 127 133 128 120 119 117 100 91 79 81 73 59 41
186 183 182 172 159 162 165 166 173 173 167 160 158 156 156 154 159 149 153 151 160 149 188 162 127 116 112 96 15 328 126 104
186 180 183 171 150 157 168 165 172 176 173 160 162 162 159 159 166 158 162 168 155 166 190 194 116 100 102 61 321 274 144 92